DECAYED

ARIANE 5 DEB (SYLDA), 43635 (Decayed)

Orbit data source: Space-Track

ARIANE 5 DEB (SYLDA), 43635 was space debris in LEO originally from a launch on Tue, 25 Sep 2018 UTC launched from the French Guiana (FRGUI). Debris objects in space refer to the collection of defunct objects orbiting the Earth. Examples of debris include non-operational satellites, rocket bodies, and fragments generated from explosions, collisions, or faulty payload assembly.

Not visible in the next 10 days
Identifier
43635, 2018-074D
Orbit
Decayed
Last TLE update
6 months ago
Origin
Manufacturer
ADS/Bremen
Mission
Decayed spacecraft
Bus & Motor
SYLDA 5, Unknown motor
Mass
440 kg wet, 440 kg dry
Launch date (UTC)
2018-09-25 (7 years ago)
Launch vehicle
Unknown
Launch site
French Guiana (FRGUI)
Object type
Payload
Rocket body
Debris
Shape & HBR
Cyl, 5.5 m
Radar Cross Section
27.391 m², Large (>1 m²)

Expand to show TLE details & history

TLE from 6 months ago
0 ARIANE 5 DEB (SYLDA)
1 43635U 18074D   24356.22750071  .07451130 -20805-4  53576-2 0  9994
2 43635   6.1947 224.4420 1064540  37.5189  93.6934 13.87638991 78443
Epoch: 2024-12-21T05:27Z
TLE epoch observation values (Epoch: 2024-12-21T05:27:36.061Z)
Latitude
3.72472°
Longitude
-164.37461°
Altitude
1,064.763 km
Speed
7.257 km/s
True Right ascension
00h 31m 13s
True Declination
3° 42' 12"
Sunlit
Object was in daylight at epoch
Visualization orbit readout
Visualization observer readout
Orbital elements
Apogee altitude
1,722.3 km
Perigee altitude
163.584 km
Semi-major axis
7,321.079 km
Eccentricity
0.10645
Inclination
6.1947°
RAAN
224.442°
Arg. of periapsis
37.5189°
True anomaly
Unknown
Mean anomaly
93.6934°
Eccentric anomaly
Unknown
Mean motion
3.46482 °/min
Orbital period
103.9 mins
BSTAR
0.0053576
Loading maneuver chart data...
Loading SW <> Apogee altitude chart data...
Loading historical data...
Loading historical data...
Loading historical data...
Loading historical data...
Loading historical data...
Loading historical data...
Loading historical data...
Other satellites on launch #74 in the year 2018 (2018-09-25 UTC)

ARIANE 5 DEB (SYLDA) Visibility

Observer location: undefined°, undefined°

This satellite is decayed
Span
Click to sort rows by Start time (UTC) header in descending order
Start Az.
Max El. time (UTC)
Max El. Az.
Max El.
End time (UTC)
End Az.
|